Weather in Slavyansk-na-Kubani

Russia / Krasnodar Krai     45°15′37″N   38°07′41″E
temp.,
°C
wind,
m/s
gust,
m/s
humid.,
%
clouds,
%
prec.,
mm/h
press.,
hPa
HPBL,
m
4 march, thu
thu400:00+2w338190 0.1 102766
03:00+1n117849 0.1 102722
06:00+1sw23790 0.0 102729
09:00+4sw35650 0.0 1026237
12:00+8wsw58520 0.0 10251474
15:00+9sw785616 0.0 10231616
18:00+7sw6106875 0.0 1022855
21:00+4ssw4127940 0.0 1022542
5 march, fri
fri500:00+3ssw4128012 0.0 1020516
03:00+3sw413826 0.0 1020443
06:00+3ssw413840 0.0 1019445
09:00+6ssw714710 0.0 1019731
12:00+10ssw912555 0.0 1018968
15:00+11ssw9135315 0.0 1017995
18:00+8ssw815660 0.0 1016753
21:00+7ssw8177114 0.0 1017614
6 march, sat
sat600:00+7ssw81964100 0.0 1017605
03:00+7ssw8187097 0.0 1017621
06:00+7ssw6157887 0.0 1017496
09:00+9sw6117593 0.0 1017762
12:00+12wsw5768100 0.0 10171058
15:00+7nw7979100 0.0 1017603
18:00+2nnw71094100 0.7 1018571
21:00+3wnw4877100 2.1 1021996
7 march, sun
sun700:00+2nnw71058100 0.0 10231126
03:00−1nw386467 0.0 1025574
06:00−1nnw37620 0.0 1027698
09:00+1nnw46460 0.0 10281304
12:00+3wnw45390 0.0 10271506
15:00+3wnw55440 0.0 10251257
18:00+1wnw35490 0.0 1024353
21:000sw38570 0.0 1024234
8 march, mon
mon800:000sw49610 0.0 1023264
03:000sw49829 0.1 1022434
06:000sw369279 0.3 1020205
09:00+3wsw466950 0.4 1020590
12:00+6wsw685025 0.0 10191687
15:00+6wsw795563 0.1 10181519
18:00+5sw596396 0.0 1017741
21:00+3sw6127286 0.0 1018560